| time (UTC) | temp F | wind direction | speed MPH | gust MPH | rain 1hr in | rain 24hr in | rain mn in | humidity % | barometer mb |
| 20260506093531 | 51 | 345 | 2.0 | 4.0 | 0.00 | 0.31 | 0.24 | 97 | |
| 20260506092523 | 51 | 339 | 3.0 | 4.0 | 0.00 | 0.31 | 0.24 | 97 | |
| 20260506091530 | 52 | 344 | 2.0 | 4.0 | 0.00 | 0.31 | 0.24 | 97 | |
| 20260506090523 | 52 | 329 | 2.0 | 4.0 | 0.00 | 0.31 | 0.24 | 98 | |
| 20260506085531 | 52 | 342 | 2.0 | 5.0 | 0.00 | 0.31 | 0.24 | 97 | |
| 20260506084523 | 53 | 334 | 2.0 | 4.0 | 0.00 | 0.31 | 0.24 | 98 | |
| 20260506083524 | 53 | 336 | 1.0 | 3.0 | 0.00 | 0.31 | 0.24 | 98 | |
| 20260506082523 | 52 | 329 | 1.0 | 3.0 | 0.00 | 0.31 | 0.24 | 98 | |
| 20260506081526 | 53 | 325 | 1.0 | 4.0 | 0.00 | 0.31 | 0.24 | 98 | |
| 20260506080522 | 53 | 339 | 2.0 | 4.0 | 0.00 | 0.31 | 0.24 | 98 | |
| 20260506073529 | 52 | 334 | 1.0 | 3.0 | 0.00 | 0.31 | 0.24 | 98 | |
| 20260506072526 | 52 | 332 | 1.0 | 3.0 | 0.00 | 0.31 | 0.24 | 98 | |
| 20260506071534 | 52 | 329 | 1.0 | 4.0 | 0.00 | 0.31 | 0.24 | 98 | |
| 20260506070523 | 52 | 318 | 0.0 | 2.0 | 0.00 | 0.31 | 0.24 | 99 | |
| 20260506061534 | 51 | 309 | 0.0 | 1.0 | 0.00 | 0.31 | 0.24 | 99 | |
| 20260506060526 | 51 | 335 | 0.0 | 2.0 | 0.00 | 0.31 | 0.24 | 99 | |
| 20260506050523 | 51 | 95 | 0.0 | 2.0 | 0.00 | 0.31 | 0.24 | 99 | |
| 20260506044523 | 51 | 331 | 0.0 | 2.0 | 0.00 | 0.31 | 0.24 | 99 | |
| 20260506043531 | 51 | 341 | 0.0 | 2.0 | 0.00 | 0.31 | 0.24 | 99 | |
| 20260506042526 | 51 | 335 | 0.0 | 2.0 | 0.00 | 0.31 | 0.24 | 99 | |
| 20260506041526 | 51 | 346 | 1.0 | 3.0 | 0.00 | 0.32 | 0.24 | 99 | |
| 20260506040526 | 51 | 341 | 1.0 | 2.0 | 0.00 | 0.32 | 0.24 | 99 | |
| 20260506035533 | 51 | 340 | 1.0 | 4.0 | 0.00 | 0.32 | 0.24 | 99 | |
| 20260506034522 | 51 | 336 | 0.0 | 2.0 | 0.00 | 0.33 | 0.24 | 98 | |
| 20260506033533 | 51 | 340 | 0.0 | 2.0 | 0.00 | 0.33 | 0.24 | 98 | |
| 20260506032523 | 51 | 344 | 0.0 | 1.0 | 0.00 | 0.33 | 0.24 | 98 | |
| 20260506031530 | 51 | 344 | 0.0 | 1.0 | 0.00 | 0.35 | 0.24 | 98 | |
| 20260506030523 | 51 | 345 | 1.0 | 3.0 | 0.00 | 0.35 | 0.24 | 98 | |
| 20260506025524 | 51 | 345 | 1.0 | 2.0 | 0.00 | 0.37 | 0.24 | 98 | |
| 20260506024526 | 51 | 348 | 0.0 | 2.0 | 0.00 | 0.37 | 0.24 | 98 | |
| 20260506023526 | 51 | 338 | 0.0 | 2.0 | 0.00 | 0.37 | 0.24 | 98 | |
| 20260506022522 | 51 | 315 | 0.0 | 2.0 | 0.00 | 0.37 | 0.24 | 98 | |
| 20260506021530 | 52 | 341 | 1.0 | 2.0 | 0.00 | 0.37 | 0.24 | 98 | |
| 20260506020522 | 52 | 352 | 1.0 | 3.0 | 0.00 | 0.37 | 0.24 | 98 | |
| 20260506015534 | 52 | 349 | 1.0 | 2.0 | 0.00 | 0.37 | 0.24 | 98 | |
| 20260506014522 | 52 | 332 | 0.0 | 2.0 | 0.01 | 0.37 | 0.24 | 98 | |
| 20260506013534 | 52 | 353 | 1.0 | 3.0 | 0.02 | 0.37 | 0.24 | 98 | |
| 20260506012526 | 52 | 346 | 0.0 | 2.0 | 0.04 | 0.37 | 0.24 | 98 | |
| 20260506011534 | 52 | 351 | 1.0 | 3.0 | 0.06 | 0.37 | 0.24 | 98 | |
| 20260506010523 | 52 | 350 | 2.0 | 4.0 | 0.07 | 0.37 | 0.24 | 98 | |
| 20260506005521 | 52 | 336 | 2.0 | 4.0 | 0.09 | 0.37 | 0.24 | 98 | |
| 20260506004522 | 52 | 347 | 2.0 | 4.0 | 0.11 | 0.35 | 0.22 | 98 | |
| 20260506003531 | 52 | 359 | 2.0 | 4.0 | 0.11 | 0.34 | 0.21 | 98 | |
| 20260506002525 | 52 | 344 | 2.0 | 4.0 | 0.11 | 0.34 | 0.20 | 98 | |
| 20260506001530 | 52 | 346 | 2.0 | 3.0 | 0.09 | 0.32 | 0.18 | 98 | |
| 20260506000523 | 52 | 348 | 1.0 | 2.0 | 0.09 | 0.31 | 0.17 | 98 | |
| 20260505235523 | 52 | 341 | 1.0 | 3.0 | 0.08 | 0.28 | 0.14 | 97 | |
| 20260505234527 | 52 | 329 | 0.0 | 2.0 | 0.07 | 0.26 | 0.12 | 97 | |
| 20260505233534 | 52 | 343 | 2.0 | 4.0 | 0.07 | 0.25 | 0.11 | 97 | |
| 20260505232523 | 52 | 339 | 1.0 | 2.0 | 0.07 | 0.24 | 0.09 | 97 | |
| 20260505231533 | 52 | 338 | 1.0 | 3.0 | 0.06 | 0.22 | 0.08 | 97 | |
| 20260505230522 | 53 | 346 | 1.0 | 4.0 | 0.06 | 0.21 | 0.07 | 97 | |
| 20260505225522 | 53 | 353 | 1.0 | 3.0 | 0.06 | 0.20 | 0.06 | 97 | |
| 20260505224526 | 53 | 336 | 1.0 | 3.0 | 0.05 | 0.19 | 0.05 | 97 | |
| 20260505223530 | 53 | 339 | 2.0 | 4.0 | 0.05 | 0.18 | 0.04 | 97 | |
| 20260505222523 | 53 | 350 | 2.0 | 4.0 | 0.05 | 0.17 | 0.02 | 97 | |
| 20260505221534 | 53 | 346 | 2.0 | 4.0 | 0.05 | 0.17 | 0.02 | 97 | |
| 20260505220523 | 53 | 349 | 2.0 | 4.0 | 0.05 | 0.15 | 0.01 | 97 | |
| 20260505215530 | 54 | 345 | 0.0 | 2.0 | 0.04 | 0.14 | 0.14 | 97 | |
| 20260505214523 | 54 | 335 | 1.0 | 2.0 | 0.05 | 0.14 | 0.14 | 97 | |
| 20260505213528 | 54 | 346 | 1.0 | 4.0 | 0.04 | 0.13 | 0.13 | 97 | |
| 20260505212525 | 54 | 324 | 0.0 | 2.0 | 0.04 | 0.12 | 0.12 | 97 | |
| 20260505211531 | 54 | 333 | 0.0 | 2.0 | 0.04 | 0.12 | 0.12 | 96 | |
| 20260505210525 | 54 | 340 | 1.0 | 2.0 | 0.02 | 0.11 | 0.11 | 96 | |
| 20260505205536 | 54 | 347 | 1.0 | 4.0 | 0.04 | 0.11 | 0.11 | 96 | |
| 20260505204522 | 54 | 340 | 1.0 | 3.0 | 0.02 | 0.09 | 0.09 | 96 | |
| 20260505203526 | 55 | 336 | 1.0 | 4.0 | 0.02 | 0.09 | 0.09 | 96 | |
| 20260505202523 | 55 | 345 | 1.0 | 2.0 | 0.01 | 0.08 | 0.08 | 95 | |
| 20260505201531 | 55 | 345 | 2.0 | 5.0 | 0.01 | 0.08 | 0.08 | 95 | |
| 20260505200526 | 55 | 341 | 2.0 | 4.0 | 0.01 | 0.09 | 0.08 | 95 | |
| 20260505195531 | 55 | 347 | 1.0 | 3.0 | 0.00 | 0.08 | 0.07 | 95 | |
| 20260505194523 | 55 | 343 | 3.0 | 5.0 | 0.00 | 0.08 | 0.07 | 94 | |
| 20260505193534 | 56 | 337 | 3.0 | 7.0 | 0.00 | 0.08 | 0.07 | 93 | |
| 20260505192523 | 56 | 347 | 2.0 | 5.0 | 0.00 | 0.08 | 0.07 | 93 | |
| 20260505191534 | 56 | 349 | 2.0 | 4.0 | 0.00 | 0.08 | 0.07 | 93 | |
| 20260505190525 | 57 | 356 | 1.0 | 3.0 | 0.00 | 0.09 | 0.07 | 92 | |
| 20260505185526 | 57 | 338 | 2.0 | 7.0 | 0.00 | 0.09 | 0.07 | 91 | |
| 20260505184522 | 57 | 334 | 1.0 | 3.0 | 0.00 | 0.11 | 0.07 | 90 | |
| 20260505183524 | 58 | 341 | 2.0 | 5.0 | 0.00 | 0.11 | 0.07 | 90 | |
| 20260505182522 | 58 | 346 | 1.0 | 4.0 | 0.00 | 0.13 | 0.07 | 90 | |
| 20260505181530 | 58 | 335 | 2.0 | 7.0 | 0.00 | 0.13 | 0.07 | 89 | |
| 20260505180526 | 58 | 335 | 2.0 | 4.0 | 0.00 | 0.15 | 0.07 | 89 | |
| 20260505175546 | 58 | 346 | 2.0 | 5.0 | 0.00 | 0.17 | 0.07 | 89 | |
| 20260505174523 | 59 | 340 | 2.0 | 4.0 | 0.00 | 0.17 | 0.07 | 88 | |
| 20260505173526 | 59 | 348 | 2.0 | 4.0 | 0.00 | 0.17 | 0.07 | 88 | |
| 20260505172525 | 59 | 334 | 1.0 | 3.0 | 0.00 | 0.17 | 0.07 | 88 | |
| 20260505171520 | 59 | 346 | 2.0 | 5.0 | 0.00 | 0.17 | 0.07 | 88 | |
| 20260505170519 | 59 | 331 | 2.0 | 4.0 | 0.00 | 0.17 | 0.07 | 87 | |
| 20260505165530 | 60 | 344 | 1.0 | 5.0 | 0.00 | 0.17 | 0.07 | 87 | |
| 20260505164527 | 60 | 344 | 2.0 | 4.0 | 0.00 | 0.17 | 0.07 | 86 | |
| 20260505163530 | 60 | 350 | 1.0 | 3.0 | 0.00 | 0.17 | 0.07 | 86 | |
| 20260505162525 | 60 | 346 | 2.0 | 4.0 | 0.00 | 0.17 | 0.07 | 86 | |
| 20260505161529 | 60 | 338 | 3.0 | 6.0 | 0.00 | 0.17 | 0.07 | 85 | |
| 20260505160526 | 60 | 342 | 2.0 | 4.0 | 0.00 | 0.17 | 0.07 | 85 | |
| 20260505152522 | 61 | 339 | 2.0 | 6.0 | 0.00 | 0.17 | 0.07 | 83 | |
| 20260505151531 | 61 | 342 | 3.0 | 7.0 | 0.00 | 0.17 | 0.07 | 83 | |
| 20260505150521 | 61 | 347 | 4.0 | 10.0 | 0.00 | 0.17 | 0.07 | 82 | |
| 20260505140526 | 63 | 335 | 4.0 | 7.0 | 0.00 | 0.17 | 0.07 | 81 | |
| 20260505124526 | 70 | 335 | 1.0 | 4.0 | 0.00 | 0.17 | 0.07 | 62 | |
| 20260505123533 | 69 | 314 | 1.0 | 2.0 | 0.00 | 0.17 | 0.07 | 65 | |
| 20260505122522 | 67 | 332 | 2.0 | 4.0 | 0.00 | 0.17 | 0.07 | 68 | |
| 20260505121534 | 67 | 332 | 2.0 | 5.0 | 0.00 | 0.17 | 0.07 | 69 | |
| 20260505120523 | 68 | 337 | 2.0 | 5.0 | 0.00 | 0.17 | 0.07 | 68 | |
| 20260505115534 | 67 | 177 | 1.0 | 3.0 | 0.00 | 0.17 | 0.07 | 68 | |
| 20260505114523 | 66 | 344 | 3.0 | 6.0 | 0.00 | 0.17 | 0.07 | 73 | |
| 20260505113534 | 66 | 354 | 1.0 | 4.0 | 0.00 | 0.17 | 0.07 | 72 | |
| 20260505112523 | 66 | 347 | 2.0 | 4.0 | 0.00 | 0.17 | 0.07 | 74 | |
| 20260505111523 | 66 | 337 | 2.0 | 4.0 | 0.00 | 0.17 | 0.07 | 75 | |
| 20260505110526 | 67 | 211 | 1.0 | 4.0 | 0.00 | 0.17 | 0.07 | 76 | |
| 20260505101531 | 65 | 349 | 1.0 | 2.0 | 0.00 | 0.17 | 0.07 | 81 | |
| 20260505100526 | 64 | 339 | 0.0 | 2.0 | 0.00 | 0.17 | 0.07 | 82 | |
| 20260505095531 | 63 | 342 | 0.0 | 2.0 | 0.00 | 0.17 | 0.07 | 85 | |
| 20260505094527 | 63 | 340 | 1.0 | 2.0 | 0.00 | 0.17 | 0.07 | 85 |